Regional Weather Roundup
Issued by NWS Kansas City/Pleasant Hill, MO

Home | Current Version | Previous Version | Text Only | Print | Product List | Glossary On
Versions: 1 2 3 4 5 6 7 8 9 10 11 12 13 14 15 16 17 18 19 20 21 22 23 24 25 26 27 28 29 30 31 32 33 34 35 36 37 38 39 40 41 42 43 44 45 46 47 48 49 50
196
ASUS43 KEAX 161510
RWREAX

WEATHER ROUNDUP FOR EASTERN KANSAS AND NORTHWEST MISSOURI
NATIONAL WEATHER SERVICE KANSAS CITY/PLEASANT HILL MO
1000 AM CDT MON OCT 16 2017

KSZ040-057-103>105-MOZ028-029-037-043-161600-
...KANSAS CITY METROPOLITAN AREA...

CITY           SKY/WX    TMP DP  RH WIND       PRES   REMARKS
K.C. INTL      SUNNY     54  43  66 SW6       30.40R
K.C. DOWNTOWN  SUNNY     54  43  66 SW5       30.40S
LEES SUMMIT    SUNNY     54  42  64 W7        30.42R
OLATHE - IXD   SUNNY     53  41  63 SW7       30.42R
OLATHE - OJC   SUNNY     54  39  57 SW7       30.41R
LAWRENCE       SUNNY     50  46  86 CALM      30.41S

$$

MOZ001>008-011>017-020>025-030>033-038>040-044>046-053-054-161600-
...NORTHERN AND CENTRAL MISSOURI...

CITY           SKY/WX    TMP DP  RH WIND       PRES   REMARKS
ST. JOSEPH     SUNNY     49  44  83 CALM      30.39S
MOSBY          SUNNY     46  41  81 CALM      30.41S
WARRENSBURG    SUNNY     54  41  62 SW5       30.42R
WHITEMAN AFB   SUNNY     53  40  60 W7        30.38R
CLINTON        SUNNY     50  41  71 SW5       30.43S
SEDALIA        SUNNY     55  42  61 SW7       30.43R
WARSAW         NOT AVBL
CHILLICOTHE      N/A     51  43  74 S3        30.40S
KIRKSVILLE     SUNNY     51  43  74 W6        30.38S

$$

MOZ041-047>049-056>058-063>065-088>090-097-161600-
...EASTERN AND SOUTHERN MISSOURI...

CITY           SKY/WX    TMP DP  RH WIND       PRES   REMARKS
ST. LOUIS INTL SUNNY     55  46  71 W6        30.41S
SPIRIT OF STL  MOSUNNY   48  47  96 W5        30.42R
COLUMBIA       SUNNY     57  42  57 W3        30.41R
JEFFERSON CITY SUNNY     50  42  74 CALM      30.42S
ROLLA          SUNNY     54  41  61 CALM      30.42S
OSAGE BEACH    SUNNY     50  46  86 S3        30.44R
SPRINGFIELD    SUNNY     54  42  64 CALM      30.43R
BRANSON        SUNNY     54  41  62 CALM      30.45R
JOPLIN         SUNNY     55  43  63 S5        30.44S
WEST PLAINS    SUNNY     56  41  57 NE6       30.43R

$$

IAZ060-094-KSZ022-034>040-054-083-096-NEZ052-066-093-161600-
...KANSAS...SOUTHEAST NEBRASKA AND IOWA...

CITY           SKY/WX    TMP DP  RH WIND       PRES   REMARKS
TOPEKA         SUNNY     51  45  79 CALM      30.40S
MANHATTAN      SUNNY     52  42  69 SW9       30.39S
EMPORIA        SUNNY     54  41  61 SW8       30.42R
CHANUTE        SUNNY     54  43  66 S8        30.44R
WICHITA        SUNNY     55  43  63 S8        30.42R
OMAHA          SUNNY     50  40  68 S7        30.33F
LINCOLN        SUNNY     49  41  74 S7        30.35S
FALLS CITY     SUNNY     52  44  74 SE3       30.37S
LAMONI         SUNNY     54  39  57 SW5       30.36S
DES MOINES     SUNNY     51  41  68 SW5       30.34R

$$





USA.gov is the U.S. government's official web portal to all federal, state and local government web resources and services.